Wind_Speed
14 14 14 15 15 15 15 15 16 16 17 17 17 17 17 17 17 17 16 16 16 17 18 18 19 19 18 18 18 18 19 19 19 20 20 21 21 22 21 22 22 22 21
15 15 16 16 15 15 16 16 16 16 16 17 17 17 17 17 17 17 17 17 17 17 17 18 18 19 19 19 19 20 20 20 20 21 21 22 22 23 22 23 23 24 23
16 16 16 17 17 17 17 17 17 17 18 18 18 18 18 18 18 18 18 18 19 19 19 18 18 17 18 19 19 20 21 22 21 22 22 23 23 23 24 24 25 25 24
17 17 17 17 18 18 18 18 18 19 19 20 20 20 20 19 19 19 19 19 19 19 19 18 18 18 19 19 20 20 21 22 22 23 23 23 23 24 24 24 24 25 25
18 19 19 19 19 19 19 19 19 20 21 22 21 20 20 20 20 20 20 20 20 19 19 19 20 20 21 21 21 21 21 22 23 23 23 23 23 23 24 25 25 24 24
20 20 20 20 20 21 21 21 21 21 22 22 22 21 21 21 21 21 21 21 21 20 20 20 20 20 21 21 21 21 22 23 24 24 23 23 24 24 24 24 25 25 25
21 21 21 21 21 22 22 22 23 23 23 24 22 22 23 23 23 22 22 22 22 21 21 21 21 21 21 21 21 22 22 23 24 24 24 24 25 25 26 25 25 26 26
22 22 22 22 22 23 23 24 25 25 25 25 24 24 24 24 24 23 23 23 23 23 23 22 22 23 23 23 23 23 23 24 23 24 25 25 26 26 26 27 27 28 28
23 23 23 24 24 25 25 26 26 27 26 27 26 25 25 25 24 23 23 23 23 24 24 24 24 24 24 24 24 24 24 24 24 25 26 26 26 27 28 29 29 30 30
24 24 25 26 26 26 27 27 27 27 28 27 27 26 25 25 25 25 25 24 24 25 25 25 26 25 25 25 25 25 25 26 26 26 26 27 28 28 29 29 29 30 30
25 26 26 26 27 28 28 27 27 28 28 28 28 26 26 25 25 26 25 25 25 25 25 26 26 26 27 27 27 27 27 27 27 28 28 28 29 29 29 30 30 30 31
26 27 28 27 27 27 27 26 26 27 27 27 27 26 26 26 26 25 25 26 26 26 26 27 27 27 28 28 28 27 28 28 28 29 29 29 30 30 30 30 30 30 31
28 28 28 29 28 28 27 27 28 28 27 27 27 27 27 27 27 27 26 26 26 27 27 28 28 28 28 29 29 29 29 29 29 29 30 30 31 31 31 31 31 31 32
29 29 29 29 29 28 28 28 28 27 27 27 28 27 27 27 28 28 28 28 28 29 29 29 29 29 30 30 30 30 30 31 31 30 30 31 31 32 32 32 32 32 32
30 30 30 29 29 28 28 28 28 28 29 29 29 29 29 29 29 29 29 29 29 29 29 29 29 30 30 30 31 31 31 31 31 31 31 31 31 31 31 31 32 33 33
31 30 30 29 29 28 28 28 29 30 30 30 30 31 30 30 30 30 30 30 29 29 29 29 28 29 29 29 29 29 30 30 30 30 31 31 31 31 31 32 32 33 33
30 31 31 30 30 29 29 30 30 30 30 30 30 31 31 31 30 30 30 29 29 28 28 28 28 28 28 28 28 28 28 29 29 30 30 30 29 30 30 30 30 31 31
32 32 31 31 31 31 31 31 31 31 31 31 31 31 31 31 30 30 29 29 28 28 29 29 29 28 28 28 28 28 28 27 28 28 29 29 29 29 29 29 29 29 29
32 32 31 30 31 31 31 32 31 31 31 32 31 31 31 30 30 29 29 29 29 29 29 29 29 28 28 27 27 27 27 27 27 28 28 29 29 28 28 27 28 28 27
32 32 32 31 31 31 32 31 31 31 31 31 31 31 31 30 30 30 30 30 30 30 29 29 29 28 28 27 27 27 27 26 27 27 27 27 27 27 27 27 27 27 27
32 32 32 31 30 30 30 30 31 31 31 31 32 31 31 31 31 30 30 30 30 30 29 29 28 27 27 27 27 27 27 27 27 27 26 26 27 27 27 27 27 27 28
31 30 29 29 29 29 29 30 30 31 31 31 31 31 30 30 30 30 29 29 29 29 28 28 27 27 27 27 27 27 27 27 27 26 26 26 26 27 27 27 27 27 28
29 29 29 28 29 28 29 29 30 31 30 30 30 29 29 29 29 29 29 29 29 28 28 27 27 27 26 26 26 26 26 26 26 26 26 26 26 26 27 27 27 27 27
28 28 28 28 28 28 28 29 30 30 29 29 29 29 29 29 29 29 29 28 28 28 28 28 28 27 26 26 26 25 25 25 25 25 25 25 25 25 26 26 26 27 27
27 27 28 28 28 28 28 29 29 29 29 29 29 29 28 28 28 28 27 27 27 28 28 27 27 27 26 26 25 25 25 25 25 25 25 24 24 24 25 25 25 26 26
26 27 28 28 28 28 28 28 28 28 28 28 27 27 26 26 25 25 25 26 26 26 26 26 26 26 25 25 25 25 26 26 26 25 24 24 24 24 24 25 25 24 24
Wind_Direction
294 297 299 303 303 304 306 306 307 308 309 309 309 308 308 309 309 307 309 307 305 301 294 289 286 283 280 278 277 275 274 271 268 265 263 260 261 259 258 259 259 258 257
297 299 299 299 300 302 305 307 307 308 310 310 310 309 308 308 308 306 307 305 304 302 301 298 290 284 281 279 277 276 275 272 269 266 264 262 263 261 260 261 261 261 260
297 299 299 299 299 300 301 302 304 305 307 308 310 308 307 306 305 303 303 303 302 300 300 298 292 288 285 283 280 277 275 273 271 268 266 265 264 262 260 262 261 259 259
295 298 299 298 297 296 297 298 300 303 305 307 306 305 304 303 303 302 301 301 301 299 297 296 291 289 288 285 282 280 278 275 272 269 268 267 267 264 263 263 262 260 259
294 296 298 298 296 295 294 295 298 300 303 305 304 302 302 301 301 301 301 299 299 297 295 293 291 291 290 288 284 281 279 276 274 272 269 269 268 266 265 264 264 264 263
294 294 294 295 296 297 294 294 297 299 301 303 302 301 301 300 299 300 300 298 297 295 292 292 291 290 291 288 285 283 281 278 275 272 271 270 266 266 266 265 265 265 267
293 294 293 294 294 294 294 294 296 297 299 300 300 299 300 299 298 298 298 297 296 294 292 290 290 289 288 286 284 283 283 280 275 272 270 270 270 268 267 266 267 269 268
291 292 292 294 293 293 293 295 299 298 299 299 298 297 297 298 298 296 297 296 295 292 290 290 290 289 287 286 285 284 282 280 275 272 271 271 272 271 268 267 268 269 270
292 291 291 291 292 292 294 295 298 298 297 297 296 295 295 296 296 295 295 295 294 292 290 289 289 290 289 288 286 285 282 280 277 275 273 271 271 270 269 269 269 269 270
292 292 290 291 291 292 293 294 297 297 296 296 296 293 293 293 293 292 292 293 292 291 290 289 289 288 287 286 285 283 282 279 277 275 274 272 272 271 270 270 270 270 270
289 291 292 291 292 292 294 296 295 296 296 296 296 294 292 292 292 292 292 292 292 292 290 290 289 288 287 285 284 283 281 279 275 274 275 274 272 272 271 271 270 271 272
286 289 291 292 293 294 294 296 296 297 297 296 295 294 293 292 292 293 293 293 292 293 292 291 289 288 287 285 283 282 281 278 276 275 275 274 272 272 272 272 272 273 273
286 288 289 291 292 293 293 293 295 296 296 297 297 295 295 294 294 294 294 294 294 293 293 292 290 289 287 285 284 282 280 278 278 276 275 274 273 272 273 272 271 274 275
287 289 291 292 292 292 292 293 295 295 296 296 297 295 294 295 296 296 295 294 293 293 292 292 290 289 287 286 284 283 281 280 278 277 276 276 275 274 275 274 274 275 276
285 287 289 290 291 291 292 292 294 295 295 294 295 295 294 294 295 295 294 293 293 293 293 292 291 289 288 287 285 284 282 280 278 277 276 276 276 275 275 276 276 276 276
284 286 288 289 289 291 293 293 294 294 294 294 294 294 294 294 294 295 295 295 294 293 293 292 292 291 290 289 287 285 284 282 280 279 278 277 277 277 277 277 277 277 276
283 284 286 288 289 291 293 294 295 295 294 295 295 295 294 294 295 296 296 296 296 294 292 291 291 291 291 291 291 289 286 284 282 281 280 279 279 278 278 279 279 278 276
283 283 284 286 290 291 292 293 293 293 294 296 296 296 296 295 295 295 295 295 295 295 293 292 291 291 289 290 290 289 288 286 283 282 280 279 278 278 278 278 279 279 276
285 286 286 287 288 291 292 293 293 293 294 295 296 296 297 295 294 293 294 294 294 294 292 292 291 290 290 290 290 290 288 286 285 283 282 280 279 278 277 278 279 280 278
285 287 286 286 287 290 292 293 293 294 295 296 296 297 296 295 293 292 292 293 293 294 292 291 291 290 290 289 289 289 290 289 288 285 284 282 281 279 278 278 278 278 277
284 286 286 286 289 291 292 293 293 294 294 295 296 297 296 294 292 291 291 291 293 293 292 291 290 289 289 289 288 288 288 289 288 286 285 284 283 281 279 278 277 278 277
283 285 285 288 290 291 293 294 295 295 294 294 295 296 296 294 293 291 290 291 291 292 291 290 290 289 290 289 288 288 288 288 288 286 285 284 282 280 278 278 277 278 278
282 284 285 288 291 292 293 293 295 294 294 295 296 296 296 295 293 291 290 290 291 291 289 289 289 289 289 288 288 288 288 288 288 287 286 285 282 280 279 278 278 278 279
283 284 286 288 290 291 292 293 293 293 294 295 296 296 297 297 295 293 292 291 291 291 290 289 289 289 288 287 287 287 288 289 289 289 287 286 285 282 280 279 279 279 280
283 284 285 286 288 290 292 293 294 294 294 295 296 297 297 296 297 296 293 293 294 293 292 290 289 288 287 286 286 288 290 290 290 289 287 287 286 284 282 281 281 281 280
284 284 284 286 288 290 291 293 294 293 294 295 296 297 297 298 298 298 296 296 296 296 294 292 290 288 286 286 287 289 290 290 290 289 287 286 286 285 284 283 283 282 281
Height
5874 5872 5871 5869 5868 5866 5863 5861 5859 5857 5855 5853 5851 5849 5847 5845 5843 5841 5839 5837 5836 5834 5832 5831 5830 5828 5827 5826 5826 5825 5825 5825 5825 5825 5824 5824 5824 5825 5825 5826 5826 5827 5828
5871 5869 5868 5866 5864 5862 5860 5858 5856 5854 5852 5849 5847 5845 5843 5841 5839 5837 5835 5833 5831 5829 5827 5826 5824 5823 5822 5821 5821 5820 5819 5819 5819 5819 5818 5818 5818 5819 5819 5820 5820 5821 5821
5867 5866 5864 5862 5860 5858 5856 5854 5852 5850 5848 5845 5843 5841 5839 5837 5834 5832 5831 5828 5826 5824 5823 5821 5819 5818 5817 5815 5815 5814 5814 5813 5813 5813 5812 5813 5813 5813 5813 5814 5814 5814 5815
5863 5861 5860 5857 5856 5854 5852 5850 5848 5846 5844 5841 5839 5837 5834 5832 5830 5828 5826 5824 5821 5819 5817 5816 5814 5812 5811 5810 5809 5808 5807 5807 5807 5806 5806 5806 5806 5806 5807 5807 5807 5808 5808
5859 5857 5855 5853 5851 5849 5847 5845 5843 5841 5839 5837 5834 5832 5830 5827 5825 5823 5821 5819 5816 5814 5812 5810 5808 5807 5805 5804 5803 5802 5801 5800 5800 5800 5800 5800 5800 5800 5800 5800 5800 5801 5801
5854 5852 5850 5848 5846 5844 5842 5840 5838 5836 5834 5831 5829 5827 5824 5822 5820 5817 5815 5813 5811 5809 5807 5805 5803 5801 5799 5798 5797 5796 5795 5794 5794 5793 5793 5793 5793 5793 5793 5793 5793 5793 5794
5849 5847 5845 5843 5841 5839 5837 5834 5832 5830 5828 5826 5823 5821 5818 5816 5814 5811 5809 5807 5805 5803 5801 5799 5797 5795 5794 5792 5791 5789 5788 5787 5787 5786 5786 5786 5786 5786 5786 5786 5785 5786 5786
5844 5842 5840 5837 5835 5833 5831 5829 5826 5824 5822 5820 5817 5814 5812 5810 5807 5805 5803 5800 5798 5796 5794 5793 5791 5789 5787 5785 5784 5783 5781 5780 5779 5779 5779 5779 5778 5778 5778 5778 5777 5777 5778
5838 5836 5834 5832 5829 5827 5825 5822 5820 5817 5815 5813 5810 5808 5805 5803 5801 5798 5796 5794 5792 5790 5788 5786 5784 5782 5780 5779 5777 5776 5774 5773 5772 5771 5771 5770 5770 5770 5769 5769 5769 5769 5769
5832 5829 5827 5825 5823 5820 5818 5816 5813 5810 5808 5805 5803 5800 5798 5796 5794 5791 5789 5787 5785 5782 5780 5778 5776 5775 5773 5771 5769 5768 5767 5766 5765 5764 5763 5762 5762 5761 5761 5761 5760 5760 5760
5825 5823 5821 5818 5816 5813 5811 5808 5806 5803 5801 5798 5795 5793 5790 5788 5786 5784 5782 5779 5777 5775 5773 5770 5768 5767 5765 5763 5762 5760 5759 5758 5757 5755 5755 5754 5753 5752 5752 5751 5751 5751 5751
5818 5816 5814 5811 5809 5806 5804 5801 5799 5796 5793 5791 5788 5785 5783 5781 5779 5777 5774 5772 5769 5767 5765 5763 5760 5758 5757 5755 5753 5752 5750 5749 5748 5747 5746 5745 5744 5743 5743 5742 5742 5741 5741
5811 5809 5806 5804 5801 5799 5797 5794 5791 5789 5786 5783 5781 5778 5776 5774 5771 5769 5767 5764 5762 5759 5757 5754 5752 5750 5748 5746 5745 5743 5741 5740 5739 5737 5737 5736 5735 5734 5733 5733 5732 5732 5731
5804 5801 5799 5796 5794 5791 5789 5787 5784 5782 5779 5776 5774 5771 5769 5766 5764 5761 5758 5756 5753 5751 5749 5746 5744 5741 5739 5737 5735 5734 5732 5731 5729 5728 5727 5726 5725 5724 5724 5723 5722 5722 5721
5796 5793 5791 5788 5786 5784 5781 5779 5777 5775 5772 5769 5766 5763 5761 5758 5755 5753 5750 5747 5745 5742 5740 5737 5735 5732 5730 5728 5726 5724 5722 5721 5719 5718 5717 5716 5715 5715 5714 5713 5712 5712 5711
5787 5785 5783 5780 5778 5776 5774 5772 5769 5767 5764 5761 5758 5755 5752 5750 5747 5744 5741 5738 5736 5733 5730 5728 5725 5723 5720 5718 5716 5714 5713 5711 5710 5709 5708 5707 5706 5705 5704 5703 5702 5702 5701
5779 5777 5775 5773 5770 5768 5766 5763 5761 5758 5755 5752 5749 5747 5744 5741 5738 5735 5732 5729 5727 5724 5721 5719 5717 5714 5712 5709 5707 5705 5703 5702 5701 5699 5698 5697 5696 5695 5694 5693 5692 5691 5691
5770 5768 5766 5764 5762 5759 5757 5754 5752 5749 5746 5743 5740 5737 5734 5731 5728 5725 5723 5720 5718 5715 5712 5710 5708 5705 5703 5701 5699 5697 5695 5693 5691 5690 5689 5688 5687 5685 5684 5684 5683 5682 5681
5761 5759 5757 5755 5753 5750 5748 5745 5743 5740 5737 5734 5731 5728 5725 5722 5719 5716 5714 5711 5709 5706 5704 5701 5699 5696 5694 5692 5690 5688 5686 5684 5682 5681 5679 5678 5677 5676 5675 5674 5674 5673 5672
5752 5750 5748 5746 5744 5741 5738 5736 5733 5730 5727 5724 5721 5718 5715 5712 5710 5707 5705 5702 5700 5697 5694 5692 5690 5687 5685 5683 5681 5679 5677 5675 5673 5672 5670 5669 5668 5667 5666 5665 5665 5664 5663
5743 5741 5739 5736 5734 5732 5729 5726 5724 5721 5718 5715 5712 5709 5705 5703 5700 5698 5696 5693 5691 5688 5685 5683 5680 5678 5677 5675 5673 5671 5669 5667 5665 5663 5662 5660 5659 5658 5657 5656 5655 5654 5654
5734 5732 5730 5728 5725 5723 5720 5717 5714 5711 5708 5705 5702 5699 5696 5693 5691 5688 5686 5684 5681 5679 5676 5674 5672 5670 5668 5666 5664 5662 5660 5658 5657 5655 5653 5651 5650 5649 5648 5647 5646 5645 5644
5724 5723 5721 5719 5716 5713 5711 5708 5705 5702 5699 5696 5693 5690 5687 5684 5682 5679 5677 5674 5672 5670 5667 5665 5663 5661 5659 5657 5655 5654 5652 5650 5648 5646 5645 5643 5641 5640 5639 5638 5637 5636 5635
5715 5714 5712 5709 5707 5704 5701 5699 5696 5693 5690 5687 5684 5681 5679 5676 5673 5670 5668 5665 5663 5661 5659 5657 5655 5653 5651 5649 5647 5645 5643 5642 5640 5638 5636 5634 5632 5631 5629 5629 5628 5627 5626
5706 5704 5702 5700 5697 5695 5692 5690 5687 5684 5681 5678 5676 5673 5670 5667 5665 5662 5659 5657 5655 5652 5650 5648 5646 5644 5642 5641 5639 5637 5635 5633 5632 5629 5628 5626 5624 5623 5621 5620 5619 5618 5617
5697 5695 5693 5691 5688 5686 5683 5681 5678 5675 5673 5670 5667 5665 5662 5659 5657 5654 5652 5649 5647 5644 5642 5640 5638 5636 5634 5632 5631 5629 5627 5625 5623 5621 5620 5618 5616 5615 5613 5612 5611 5609 5608